Terminal Aerodrome Forecast
Issued by NWS

Home | Current Version | Previous Version | Text Only | Print | Product List | Glossary Off
Versions: 1 2 3 4 5 6 7 8 9 10 11 12 13 14 15 16 17 18

000
FTUS43 KTOP 111700
TAFFOE
TAF
KFOE 111738Z 1118/1218 19009KT P6SM SCT100
      TEMPO 1120/1124 20014G22KT
     FM121600 21015G23KT P6SM FEW250=

USA.gov is the U.S. government's official web portal to all federal, state and local government web resources and services.